DW9711 Weather Reports


Display with metric or nautical units.
time (UTC)temp
F
wind
direction
speed
MPH
gust
MPH
rain 1hr
in
rain 24hr
in
rain mn
in
humidity
%
barometer
mb
20260906144053 85 53 0.0 1.0 0.00 0.00 0.00 76 1011.1
20260906143552 85 56 0.0 1.0 0.00 0.00 0.00 77 1011.1
20260906143055 84 22 0.0 1.0 0.00 0.00 0.00 78 1011.1
20260906142550 84 19 0.0 0.0 0.00 0.00 0.00 79 1011.1
20260906142049 84 36 0.0 0.0 0.00 0.00 0.00 79 1011.1
20260906141549 83 31 0.0 0.0 0.00 0.00 0.00 79 1011.1
20260906141046 83 42 0.0 0.0 0.00 0.00 0.00 80 1011.2
20260906140544 83 37 0.0 0.0 0.00 0.00 0.00 80 1011.3
20260906140054 82 27 0.0 0.0 0.00 0.00 0.00 82 1011.3
20260906135541 82 27 0.0 1.0 0.00 0.00 0.00 83 1011.3
20260906135040 82 26 0.0 4.0 0.00 0.00 0.00 83 1011.3
20260906134539 81 48 0.0 6.0 0.00 0.00 0.00 83 1011.3
20260906134041 81 23 1.0 6.0 0.00 0.00 0.00 84 1011.3
20260906133539 81 19 2.0 6.0 0.00 0.00 0.00 85 1011.4
20260906133048 80 17 2.0 6.0 0.00 0.00 0.00 86 1011.3
20260906132536 80 29 2.0 6.0 0.00 0.00 0.00 86 1011.4
20260906132034 80 23 3.0 6.0 0.00 0.00 0.00 86 1011.4
20260906131531 79 31 2.0 6.0 0.00 0.00 0.00 87 1011.4
20260906131029 79 55 2.0 7.0 0.00 0.00 0.00 88 1011.3
20260906130528 79 20 2.0 7.0 0.00 0.00 0.00 89 1011.3
20260906130027 78 19 3.0 6.0 0.00 0.00 0.00 89 1011.3
20260906125526 78 39 2.0 6.0 0.00 0.00 0.00 90 1011.2
20260906125024 78 28 3.0 6.0 0.00 0.00 0.00 91 1011.2
20260906124522 77 46 1.0 5.0 0.00 0.00 0.00 92 1011.1
20260906124026 77 54 1.0 5.0 0.00 0.00 0.00 93 1011.2
20260906123522 76 10 2.0 4.0 0.00 0.00 0.00 94 1011.1
20260906123019 76 360 1.0 4.0 0.00 0.00 0.00 94 1011.0
20260906122517 75 322 0.0 1.0 0.00 0.00 0.00 94 1010.9
20260906122016 75 321 0.0 0.0 0.00 0.00 0.00 94 1010.8
20260906121517 75 321 0.0 0.0 0.00 0.00 0.00 94 1010.8
20260906121016 74 321 0.0 0.0 0.00 0.00 0.00 93 1010.8
20260906120514 74 321 0.0 0.0 0.00 0.00 0.00 93 1010.7
20260906120013 74 321 0.0 0.0 0.00 0.00 0.00 92 1010.7
20260906115512 74 321 0.0 0.0 0.00 0.00 0.00 92 1010.6
20260906115011 74 321 0.0 0.0 0.00 0.00 0.00 92 1010.4
20260906114521 74 321 0.0 0.0 0.00 0.00 0.00 92 1010.3
20260906114009 74 321 0.0 0.0 0.00 0.00 0.00 92 1010.2
20260906113511 74 321 0.0 0.0 0.00 0.00 0.00 92 1010.2
20260906113012 75 321 0.0 0.0 0.00 0.00 0.00 91 1010.2
20260906112507 75 321 0.0 0.0 0.00 0.00 0.00 91 1010.1
20260906112007 75 321 0.0 0.0 0.00 0.00 0.00 91 1010.0
20260906111505 76 321 0.0 0.0 0.00 0.00 0.00 91 1010.0
20260906111004 76 321 0.0 0.0 0.00 0.00 0.00 92 1010.0
20260906110505 76 321 0.0 0.0 0.00 0.00 0.00 92 1010.0
20260906110004 76 321 0.0 0.0 0.00 0.00 0.00 92 1010.0
20260906105503 76 321 0.0 0.0 0.00 0.00 0.00 92 1009.9
20260906105003 76 321 0.0 0.0 0.00 0.00 0.00 91 1009.9
20260906104503 76 321 0.0 0.0 0.00 0.00 0.00 91 1009.8
20260906104002 76 321 0.0 0.0 0.00 0.00 0.00 91 1009.9
20260906103600 76 321 0.0 0.0 0.00 0.00 0.00 91 1009.7
20260906103100 76 321 0.0 0.0 0.00 0.00 0.00 92 1009.6
20260906102602 76 321 0.0 0.0 0.00 0.00 0.00 91 1009.4
20260906102100 76 321 0.0 0.0 0.00 0.00 0.00 91 1009.4
20260906101600 76 321 0.0 0.0 0.00 0.00 0.00 91 1009.3
20260906101059 76 321 0.0 0.0 0.00 0.00 0.00 92 1009.3
20260906100558 76 321 0.0 0.0 0.00 0.00 0.00 91 1009.2
20260906100058 76 321 0.0 0.0 0.00 0.00 0.00 90 1009.2
20260906095558 76 321 0.0 0.0 0.00 0.00 0.00 90 1009.2
20260906095057 76 321 0.0 0.0 0.00 0.00 0.00 89 1009.2
20260906094556 77 321 0.0 0.0 0.00 0.00 0.00 89 1009.1
20260906094055 77 321 0.0 0.0 0.00 0.00 0.00 90 1009.0
20260906093555 77 321 0.0 0.0 0.00 0.00 0.00 90 1009.0
20260906093054 77 321 0.0 0.0 0.00 0.00 0.00 90 1009.1
20260906092554 77 321 0.0 0.0 0.00 0.00 0.00 90 1009.1
20260906092054 77 321 0.0 0.0 0.00 0.00 0.00 90 1009.1
20260906091554 77 321 0.0 0.0 0.00 0.00 0.00 90 1009.2
20260906091053 77 321 0.0 0.0 0.00 0.00 0.00 89 1009.2
20260906090553 77 321 0.0 0.0 0.00 0.00 0.00 89 1009.3
20260906090056 77 321 0.0 0.0 0.00 0.00 0.00 89 1009.3
20260906085556 77 321 0.0 0.0 0.00 0.00 0.00 89 1009.2
20260906085052 77 321 0.0 0.0 0.00 0.00 0.00 89 1009.1
20260906084552 77 321 0.0 0.0 0.00 0.00 0.00 89 1009.2
20260906084052 77 321 0.0 0.0 0.00 0.00 0.00 89 1009.2
20260906083554 77 321 0.0 0.0 0.00 0.00 0.00 89 1009.2
20260906083053 77 321 0.0 0.0 0.00 0.00 0.00 89 1009.2
20260906082550 77 321 0.0 0.0 0.00 0.00 0.00 89 1009.2
20260906082052 77 321 0.0 0.0 0.00 0.00 0.00 89 1009.2
20260906081550 77 321 0.0 0.0 0.00 0.00 0.00 89 1009.2
20260906081050 77 321 0.0 0.0 0.00 0.00 0.00 89 1009.2
20260906080548 78 321 0.0 0.0 0.00 0.00 0.00 88 1009.1
20260906080049 78 321 0.0 0.0 0.00 0.00 0.00 88 1009.1
20260906075547 78 321 0.0 0.0 0.00 0.00 0.00 88 1009.1
20260906075050 78 321 0.0 0.0 0.00 0.00 0.00 88 1008.9
20260906074547 79 321 0.0 0.0 0.00 0.00 0.00 88 1009.0
20260906074047 78 321 0.0 0.0 0.00 0.00 0.00 88 1008.9
20260906073547 78 321 0.0 0.0 0.00 0.00 0.00 88 1009.0
20260906073049 78 321 0.0 0.0 0.00 0.00 0.00 88 1008.9
20260906072546 78 321 0.0 0.0 0.00 0.00 0.00 88 1008.9
20260906072045 78 321 0.0 0.0 0.00 0.00 0.00 88 1008.9
20260906071550 78 321 0.0 0.0 0.00 0.00 0.00 88 1008.8
20260906071045 78 321 0.0 0.0 0.00 0.00 0.00 88 1008.8
20260906070544 78 321 0.0 0.0 0.00 0.00 0.00 87 1008.9
20260906070042 79 321 0.0 0.0 0.00 0.00 0.00 87 1008.9
20260906065543 79 321 0.0 0.0 0.00 0.00 0.00 87 1009.0
20260906065041 79 321 0.0 0.0 0.00 0.00 0.00 86 1009.0
20260906064541 80 321 0.0 0.0 0.00 0.00 0.00 87 1009.0
20260906064040 80 321 0.0 0.0 0.00 0.00 0.00 87 1009.0
20260906063538 80 321 0.0 0.0 0.00 0.00 0.00 87 1009.0
20260906063038 80 321 0.0 0.0 0.00 0.00 0.00 86 1009.1
20260906062538 80 321 0.0 0.0 0.00 0.00 0.00 86 1009.1
20260906062037 80 321 0.0 0.0 0.00 0.00 0.00 86 1009.1
20260906061537 80 321 0.0 0.0 0.00 0.00 0.00 86 1009.1
20260906061039 80 321 0.0 0.0 0.00 0.00 0.00 85 1009.2
20260906060534 81 321 0.0 0.0 0.00 0.00 0.00 85 1009.2
20260906060034 81 321 0.0 0.0 0.00 0.00 0.00 85 1009.3
20260906055533 81 321 0.0 0.0 0.00 0.00 0.00 85 1009.3
20260906055033 81 321 0.0 0.0 0.00 0.00 0.00 85 1009.3
20260906054546 81 321 0.0 0.0 0.00 0.00 0.00 84 1009.3
20260906054032 81 321 0.0 0.0 0.00 0.00 0.00 84 1009.4
20260906053531 81 321 0.0 0.0 0.00 0.00 0.00 83 1009.4
20260906053030 81 321 0.0 0.0 0.00 0.00 0.00 82 1009.5
20260906052531 81 321 0.0 0.0 0.00 0.00 0.00 82 1009.5
20260906052030 81 321 0.0 0.0 0.00 0.00 0.00 82 1009.5
20260906051529 81 321 0.0 0.0 0.00 0.00 0.00 81 1009.4
20260906051028 81 321 0.0 0.0 0.00 0.00 0.00 81 1009.6
20260906050527 81 321 0.0 0.0 0.00 0.00 0.00 81 1009.6
20260906050027 81 321 0.0 0.0 0.00 0.00 0.00 81 1009.6
20260906045527 81 321 0.0 0.0 0.00 0.00 0.00 80 1009.6
20260906045026 81 321 0.0 0.0 0.00 0.00 0.00 80 1009.6
20260906044526 81 321 0.0 0.0 0.00 0.00 0.00 80 1009.6
20260906044027 80 321 0.0 0.0 0.00 0.00 0.00 80 1009.6
20260906043526 81 321 0.0 0.0 0.00 0.00 0.00 81 1009.5
20260906043026 81 321 0.0 0.0 0.00 0.00 0.00 82 1009.6
20260906042526 81 321 0.0 0.0 0.00 0.00 0.00 82 1009.6
20260906042026 81 321 0.0 0.0 0.00 0.00 0.00 80 1009.6
20260906041528 81 321 0.0 0.0 0.00 0.00 0.00 80 1009.6
20260906041029 82 321 0.0 0.0 0.00 0.00 0.00 80 1009.6
20260906040525 82 321 0.0 0.0 0.00 0.00 0.00 81 1009.7
20260906040046 82 321 0.0 0.0 0.00 0.00 0.00 81 1009.7
20260906035525 81 321 0.0 0.0 0.00 0.00 0.00 81 1009.5
20260906035028 81 321 0.0 0.0 0.00 0.00 0.00 81 1009.5
20260906034525 81 321 0.0 0.0 0.00 0.00 0.00 81 1009.4
20260906034024 81 321 0.0 0.0 0.00 0.00 0.00 81 1009.3
20260906033524 81 321 0.0 1.0 0.00 0.00 0.00 81 1009.3
20260906033039 81 321 0.0 1.0 0.00 0.00 0.00 81 1009.4
20260906032524 81 320 0.0 0.0 0.00 0.00 0.00 80 1009.3
20260906032024 82 320 0.0 0.0 0.00 0.00 0.00 80 1009.2
20260906031525 82 320 0.0 2.0 0.00 0.00 0.00 80 1009.2
20260906031024 83 320 1.0 2.0 0.00 0.00 0.00 78 1009.3
20260906030524 83 318 0.0 0.0 0.00 0.00 0.00 80 1009.0
20260906030023 83 318 0.0 0.0 0.00 0.00 0.00 79 1009.0
20260906025523 83 318 0.0 0.0 0.00 0.00 0.00 79 1009.0
20260906025024 84 318 0.0 0.0 0.00 0.00 0.00 79 1008.9
20260906024523 84 318 0.0 0.0 0.00 0.00 0.00 78 1009.0
20260906024027 84 318 0.0 0.0 0.00 0.00 0.00 77 1009.0
20260906023526 84 318 0.0 0.0 0.00 0.00 0.00 76 1008.9
20260906023023 84 318 0.0 0.0 0.00 0.00 0.00 76 1008.9
20260906022523 84 318 0.0 0.0 0.00 0.00 0.00 75 1008.9
20260906022023 84 318 0.0 0.0 0.00 0.00 0.00 77 1008.8
20260906021523 84 318 0.0 0.0 0.00 0.00 0.00 76 1008.7
20260906021022 84 318 0.0 0.0 0.00 0.00 0.00 74 1008.7
20260906020522 85 318 0.0 0.0 0.00 0.00 0.00 75 1008.7
20260906020022 85 318 0.0 0.0 0.00 0.00 0.00 76 1008.6
20260906015521 86 318 0.0 0.0 0.00 0.00 0.00 74 1008.5
20260906015022 86 318 0.0 0.0 0.00 0.00 0.00 74 1008.5
20260906014526 87 318 0.0 0.0 0.00 0.00 0.00 75 1008.4
20260906014023 87 318 0.0 0.0 0.00 0.00 0.00 74 1008.4
20260906013521 87 318 0.0 0.0 0.00 0.00 0.00 73 1008.4
20260906013021 87 318 0.0 0.0 0.00 0.00 0.00 72 1008.4
20260906012524 88 318 0.0 0.0 0.00 0.00 0.00 71 1008.4
20260906012020 88 318 0.0 0.0 0.00 0.00 0.00 69 1008.4
20260906011521 88 318 0.0 0.0 0.00 0.00 0.00 69 1008.3
20260906011023 88 318 0.0 0.0 0.00 0.00 0.00 67 1008.3
20260906010520 88 318 0.0 0.0 0.00 0.00 0.00 67 1008.4
20260906010021 88 318 0.0 0.0 0.00 0.00 0.00 66 1008.3
20260906005519 89 318 0.0 0.0 0.00 0.00 0.00 65 1008.2
20260906005020 89 318 0.0 0.0 0.00 0.00 0.00 66 1008.2
20260906004520 90 318 0.0 0.0 0.00 0.00 0.00 67 1008.1
20260906004023 90 318 0.0 0.0 0.00 0.00 0.00 65 1008.1
20260906003519 90 318 0.0 0.0 0.00 0.00 0.00 64 1008.1
20260906003019 91 318 0.0 0.0 0.00 0.00 0.00 63 1008.1
20260906002518 91 318 0.0 0.0 0.00 0.00 0.00 62 1008.2
20260906002019 92 318 0.0 0.0 0.00 0.00 0.00 60 1008.2
20260906001518 92 318 0.0 0.0 0.00 0.00 0.00 59 1008.3
20260906001018 92 318 0.0 0.0 0.00 0.00 0.00 58 1008.3
20260906000518 92 318 0.0 0.0 0.00 0.00 0.00 57 1008.2
20260906000018 93 318 0.0 0.0 0.00 0.00 0.00 57 1008.3
20260905235517 93 318 0.0 0.0 0.00 0.00 0.00 58 1008.4
20260905235018 93 318 0.0 0.0 0.00 0.00 0.00 60 1008.4
20260905234519 93 318 0.0 0.0 0.00 0.00 0.00 55 1008.4
20260905234017 94 318 0.0 0.0 0.00 0.00 0.00 55 1008.4
20260905233517 94 318 0.0 0.0 0.00 0.00 0.00 56 1008.4
20260905233017 94 318 0.0 0.0 0.00 0.00 0.00 54 1008.4
20260905232517 95 318 0.0 0.0 0.00 0.00 0.00 54 1008.3
20260905232017 95 318 0.0 0.0 0.00 0.00 0.00 54 1008.3
20260905231520 96 318 0.0 0.0 0.00 0.00 0.00 54 1008.3
20260905231017 96 318 0.0 0.0 0.00 0.00 0.00 52 1008.4
20260905230516 97 318 0.0 1.0 0.00 0.00 0.00 51 1008.4
20260905230016 97 318 0.0 2.0 0.00 0.00 0.00 51 1008.3
20260905225515 98 319 0.0 2.0 0.00 0.00 0.00 51 1008.3
20260905225019 98 319 0.0 2.0 0.00 0.00 0.00 51 1008.2
20260905224534 99 319 0.0 2.0 0.00 0.00 0.00 49 1008.3
20260905224015 99 318 0.0 3.0 0.00 0.00 0.00 48 1008.2
20260905223515 99 318 0.0 3.0 0.00 0.00 0.00 50 1008.2
20260905223020 99 318 0.0 2.0 0.00 0.00 0.00 47 1008.2
20260905222515 99 318 0.0 4.0 0.00 0.00 0.00 48 1008.2
20260905222014 99 320 0.0 2.0 0.00 0.00 0.00 47 1008.3
20260905221514 99 321 0.0 3.0 0.00 0.00 0.00 48 1008.3
20260905221014 99 320 0.0 5.0 0.00 0.00 0.00 49 1008.3
20260905220512 100 321 1.0 5.0 0.00 0.00 0.00 46 1008.5
20260905220012 100 321 2.0 5.0 0.00 0.00 0.00 45 1008.4
20260905215514 101 278 1.0 3.0 0.00 0.00 0.00 45 1008.4
20260905215014 101 277 0.0 3.0 0.00 0.00 0.00 44 1008.4
20260905214511 100 278 0.0 2.0 0.00 0.00 0.00 45 1008.4
20260905214011 101 278 0.0 2.0 0.00 0.00 0.00 44 1008.5
20260905213511 100 278 0.0 4.0 0.00 0.00 0.00 43 1008.5
20260905213011 100 278 0.0 4.0 0.00 0.00 0.00 44 1008.5
20260905212512 100 265 0.0 2.0 0.00 0.00 0.00 45 1008.5
20260905212011 100 265 0.0 2.0 0.00 0.00 0.00 44 1008.5
20260905211528 100 265 0.0 0.0 0.00 0.00 0.00 47 1008.6
20260905211009 100 265 0.0 1.0 0.00 0.00 0.00 47 1008.7
20260905210508 100 265 0.0 2.0 0.00 0.00 0.00 44 1008.7
20260905210016 100 265 0.0 2.0 0.00 0.00 0.00 42 1008.7
20260905205507 100 265 0.0 2.0 0.00 0.00 0.00 45 1008.7
20260905205007 100 265 0.0 4.0 0.00 0.00 0.00 43 1008.7